Overview Statistics Trail Chart Weather Telemetry Raw packets
 

This is the latest recevied weather packets stored in our database for station/object KB7STN. If no packets are shown the sender has not sent any weather packets the latest 10 day(s).

<< 11 12 13 14 15 16 17 >>
Time Temp. Humidity Pressure Rain* Wind** Luminosity Snow
1788618613 21.67° C 31% 1019.4 hPa 0 mm - - -
1788618313 21.11° C 30% 1019.3 hPa 0 mm - - -
1788618013 21.11° C 31% 1019.3 hPa 0 mm - - -
1788617713 20.56° C 31% 1019.3 hPa 0 mm - - -
1788617413 20° C 33% 1019.3 hPa 0 mm - - -
1788617113 20° C 34% 1019.2 hPa 0 mm - - -
1788616813 19.44° C 32% 1019.1 hPa 0 mm - - -
1788616513 18.89° C 34% 1019.1 hPa 0 mm - - -
1788616213 18.89° C 34% 1019.1 hPa 0 mm - - -
1788615913 18.33° C 32% 1018.9 hPa 0 mm - - -
1788615613 17.78° C 32% 1019 hPa 0 mm - - -
1788615313 17.78° C 32% 1018.9 hPa 0 mm - - -
1788615013 17.78° C 32% 1018.9 hPa 0 mm - - -
1788614713 17.78° C 33% 1018.8 hPa 0 mm - - -
1788614413 18.33° C 29% 1018.7 hPa 0 mm - - -
1788614113 18.89° C 28% 1018.7 hPa 0 mm - - -
1788613813 18.89° C 27% 1018.6 hPa 0 mm - - -
1788613513 19.44° C 26% 1018.6 hPa 0 mm - - -
1788613213 19.44° C 26% 1018.3 hPa 0 mm - - -
1788612913 19.44° C 26% 1018.3 hPa 0 mm - - -
1788612613 19.44° C 25% 1018.2 hPa 0 mm - - -
1788612313 19.44° C 25% 1018.2 hPa 0 mm - - -
1788612013 19.44° C 26% 1018.1 hPa 0 mm - - -
1788611713 19.44° C 25% 1018 hPa 0 mm - - -
1788611413 19.44° C 26% 1018.1 hPa 0 mm - - -

* Rain latest hour (hover to see other rain measurements)
** Current wind speed in m/s (hover to see current wind gust speed)